This is the latest recevied weather packets stored in our database for station/object W4TJP. If no packets are shown the sender has not sent any weather packets the latest 10 day(s).
| Time | Temp. | Humidity | Pressure | Rain* | Wind** | Luminosity | Snow |
|---|---|---|---|---|---|---|---|
| 1777381012 | 13.89° C | 99% | 1017.6 hPa | 0 mm | - | 50 W/m² | - |
| 1777380708 | 13.89° C | 99% | 1018 hPa | 0 mm | - | 35 W/m² | - |
| 1777380404 | 13.89° C | 99% | 1018 hPa | 0 mm | - | 33 W/m² | - |
| 1777380101 | 14.44° C | 99% | 1017.8 hPa | 0 mm | - | 25 W/m² | - |
| 1777379797 | 14.44° C | 99% | 1018.1 hPa | 0 mm | - | 24 W/m² | - |
| 1777379493 | 14.44° C | 99% | 1018.2 hPa | 0 mm | - | 30 W/m² | - |
| 1777379188 | 14.44° C | 99% | 1018.2 hPa | 0 mm | - | 32 W/m² | - |
| 1777378883 | 14.44° C | 99% | 1018.1 hPa | 0 mm | - | 34 W/m² | - |
| 1777378579 | 14.44° C | 99% | 1018.2 hPa | 0 mm | - | 12 W/m² | - |
| 1777378276 | 14.44° C | 99% | 1018 hPa | 0 mm | - | 14 W/m² | - |
| 1777377974 | 14.44° C | 99% | 1018.1 hPa | 0 mm | - | 14 W/m² | - |
| 1777377675 | 14.44° C | 99% | 1018.1 hPa | 0 mm | - | 17 W/m² | - |
| 1777377370 | 14.44° C | 99% | 1017.9 hPa | 0 mm | - | 13 W/m² | - |
| 1777377067 | 14.44° C | 99% | 1017.4 hPa | 0 mm | - | 10 W/m² | - |
| 1777376763 | 14.44° C | 99% | 1017 hPa | 0 mm | - | 19 W/m² | - |
| 1777376461 | 14.44° C | 99% | 1017 hPa | 0 mm | - | 16 W/m² | - |
| 1777376161 | 14.44° C | 99% | 1016.7 hPa | 0 mm | - | 12 W/m² | - |
| 1777375856 | 14.44° C | 99% | 1016 hPa | 0 mm | - | 10 W/m² | - |
| 1777375551 | 14.44° C | 99% | 1016.3 hPa | 0 mm | - | 5 W/m² | - |
| 1777375247 | 14.44° C | 99% | 1014.7 hPa | 0 mm | - | 4 W/m² | - |
| 1777374943 | 14.44° C | 99% | 1013.9 hPa | 1.27 mm | - | 2 W/m² | - |
| 1777374639 | 15° C | 99% | 1014.6 hPa | 1.27 mm | - | 0 W/m² | - |
| 1777374336 | 15° C | 99% | 1015.5 hPa | 3.05 mm | - | 0 W/m² | - |
| 1777374032 | 15° C | 99% | 1015.8 hPa | 1.78 mm | - | 0 W/m² | - |
| 1777373729 | 15° C | 99% | 1015.8 hPa | 3.05 mm | - | 0 W/m² | - |
* Rain latest hour (hover to see other rain measurements)
** Current wind speed in m/s (hover to see current wind gust speed)